Showing default

LANDSAT 8, 39084

Orbit data source: Space-Track

LANDSAT 8, 39084 is a payload satellite owned by USGS EROS (US) in SSO that was launched on Mon, 11 Feb 2013 UTC via an ATLAS V 401 launch vehicle from the Air Force Western Test Range (AFWTR). Payload-class satellites include a variety of spacecraft equipped with specific instruments for various scientific and technological missions. These include communications satellites like Starlink; space stations such as the ISS; scientific satellites like the Hubble; Earth observation satellites from companies like Planet Labs, Umbra, and HawkEye 360; GPS; miniature CubeSats for education and research; and military/defense satellites.

Loading next visibility...
Identifier
39084, 2013-008A
Orbit
SSO
Country
Flag of USUS
Related business
Manufacturer
OSC-Gilbert
Mission
Operational Civil Imaging
Bus & Motor
LEOSTAR-3, Unknown motor
Mass
2,782 kg wet, 2,387 kg dry
Launch date (UTC)
2013-02-11 (13 years ago)
Launch vehicle
ATLAS V 401
Launch site
Air Force Western Test Range (AFWTR)
Object type
Payload
Rocket body
Debris
Shape & HBR
Hex Cyl + 1 Pan, 10.7 m
Radar Cross Section
17.735 m², Large (>1 m²)

Expand to show TLE details & history
Last TLE update: 10 hours ago

TLE from 10 hours ago
0 LANDSAT 8
1 39084U 13008A   26093.86191760  .00000515  00000-0  12425-3 0  9992
2 39084  98.1875 165.1687 0001220  89.4800 270.6538 14.57109763687074
Epoch: 2026-04-03T20:41Z
TLE epoch observation values (Epoch: 2026-04-03T20:41:09.680Z)
Latitude
-0.00007°
Longitude
22.68841°
Altitude
705.494 km
Speed
7.503 km/s
True Right ascension
11h 00m 40s
True Declination
0° 00' 00"
Sunlit
Object was in full shadow at epoch
Visualization orbit readout
Latitude
Unknown
Longitude
Unknown
Altitude
Unknown
Speed
Unknown
Apparent Right ascension
Unknown
Apparent Declination
Unknown
Sunlit
N/A
Visualization observer readout
Local Sidereal Time
12:23:05
Azimuth
Unknown
Elevation
Unknown
Doppler factor
Unknown
Orbital elements
Apogee altitude
700.47 km
Perigee altitude
698.743 km
Semi-major axis
7,077.743 km
Eccentricity
0.00012
Inclination
98.1875°
RAAN
165.1687°
Arg. of periapsis
89.48°
True anomaly
270.63982°
Mean anomaly
270.6538°
Eccentric anomaly
270.64681°
Mean motion
3.64503 °/min
Orbital period
98.76 mins
BSTAR
0.00012425
Loading maneuver chart data...
Computing Atmospheric mass density...
Loading historical data...
Loading historical data...
Loading historical data...
Loading historical data...
Loading historical data...
Loading historical data...
Loading historical data...
Other satellites on launch #8 in the year 2013 (2013-02-11 UTC)

Documentation

Showing up to 5 results
|